Temp
-0 -1 -0 1 0 1 2 1 2 2 2 1 1 2 2 3 2 3 2 2 2 3 3 3 3 4 4 4 4 5 5 5 5 5 6 6 6 6 7 7 6 6 6 6
-1 -1 1 0 -0 -0 -0 0 1 1 1 0 1 2 3 3 3 2 2 2 2 2 3 3 4 3 4 4 4 4 4 4 4 4 5 5 5 6 6 6 6 6 6 6
-0 1 -0 -1 -1 -1 -1 -0 1 1 1 1 1 2 4 3 2 2 2 2 2 3 2 2 2 2 2 3 3 3 4 4 4 4 4 5 5 5 5 6 6 6 6 6
-1 -0 -1 -1 -1 -1 0 0 -0 -0 1 3 1 5 4 3 2 1 2 1 2 2 2 2 2 2 2 2 2 3 3 3 3 4 4 4 4 5 5 5 5 6 6 6
-1 -2 -1 -1 -1 -1 0 -0 -0 0 1 1 2 2 5 3 2 1 -0 1 1 1 1 1 1 1 1 2 2 2 2 3 3 3 4 4 4 4 4 5 5 6 6 6
-2 -2 -2 -1 -1 -1 -1 -1 -1 -0 0 2 3 3 5 3 3 0 1 1 0 0 0 0 1 1 2 2 3 3 2 3 3 3 3 3 3 4 4 5 5 6 6 6
-2 -2 -2 -2 -1 -2 -2 -1 2 2 2 3 2 3 4 1 -0 -1 1 1 0 -0 -0 -0 0 0 1 1 2 2 3 3 3 3 2 2 3 3 4 4 5 6 6 5
-1 -1 -2 -3 -2 -1 -1 -0 2 2 3 4 1 2 3 0 -1 -0 -1 -1 -1 -0 -1 -1 -0 -0 -0 0 0 0 1 2 2 3 3 3 3 3 4 4 5 5 6 6
-2 -2 -3 -3 -2 -2 -1 -1 -1 -1 -0 1 2 2 -0 -3 -3 -3 -2 -2 -2 -1 -1 -2 -1 -2 -1 -1 -1 -1 0 -0 -1 1 2 3 3 3 4 4 5 5 5 5
-4 -3 -3 -4 -3 -3 -3 -2 -2 -2 -1 1 3 3 3 -3 -3 -3 -2 -2 -2 -2 -2 -2 -1 -2 -2 -2 -2 -1 -1 -1 0 1 1 2 2 3 4 5 5 5 5 5
-5 -4 -4 -4 -4 -3 -3 -3 -3 -3 -1 0 1 3 -3 -3 -3 -2 -3 -3 -3 -3 -3 -2 -1 -2 -2 -2 -2 -2 -2 -1 -0 0 1 0 1 2 3 3 4 4 4 5
-4 -4 -3 -4 -4 -4 -4 -4 -4 -3 -2 -2 -2 -1 -4 -3 -3 -3 -3 -3 -4 -4 -3 -4 -2 -2 -3 -2 -2 -1 -2 -1 -0 -0 0 -0 0 1 1 3 3 4 4 5
-4 -5 -4 -4 -6 -5 -5 -5 -5 -6 -6 -4 -2 -1 -5 -4 -4 -4 -4 -4 -5 -5 -4 -4 -3 -3 -3 -2 -2 -2 -1 -1 0 1 0 0 0 1 1 2 3 3 3 4
-5 -5 -4 -2 -4 -5 -6 -6 -6 -6 -6 -4 -3 -3 -3 -4 -5 -7 -5 -5 -5 -5 -5 -4 -3 -3 -3 -2 -2 -3 -2 -1 -0 0 0 0 -0 -1 -0 1 2 2 2 2
-6 -7 -6 -6 -6 -7 -6 -6 -6 -6 -6 -6 -5 -6 -6 -6 -7 -7 -6 -6 -5 -5 -5 -5 -4 -4 -4 -4 -3 -3 -2 -1 -1 -1 0 -0 -1 -1 0 -0 -0 1 1 1
-7 -8 -8 -7 -7 -7 -7 -7 -6 -6 -7 -7 -7 -7 -7 -8 -8 -7 -7 -6 -6 -6 -6 -5 -5 -5 -5 -4 -4 -3 -2 -2 -1 -1 -1 -1 -1 -0 -1 -0 -0 0 0 0
-9 -8 -9 -7 -8 -8 -7 -7 -7 -7 -7 -8 -8 -7 -7 -8 -8 -8 -7 -7 -7 -7 -6 -6 -6 -6 -6 -5 -4 -4 -3 -2 -2 -2 -1 -0 -1 -0 1 0 0 0 0 0
-9 -9 -9 -8 -9 -7 -8 -9 -8 -9 -9 -8 -8 -8 -8 -8 -8 -8 -8 -8 -7 -7 -7 -7 -7 -7 -6 -6 -6 -5 -4 -4 -3 -2 -1 -1 -1 -1 -0 -0 -0 0 0 -0
-10 -9 -9 -8 -7 -7 -9 -9 -9 -9 -9 -9 -9 -8 -8 -8 -8 -9 -8 -8 -8 -8 -7 -7 -7 -7 -7 -6 -6 -6 -5 -5 -4 -3 -2 -2 -1 -1 -1 -1 -1 -1 -1 -1
-9 -10 -9 -9 -8 -6 -8 -9 -9 -9 -9 -9 -9 -9 -9 -9 -9 -8 -8 -8 -8 -8 -7 -8 -7 -7 -7 -7 -7 -6 -6 -6 -5 -5 -4 -3 -3 -2 -2 -2 -1 -1 -1 -1
-10 -10 -10 -9 -9 -8 -8 -9 -9 -10 -9 -9 -9 -9 -9 -9 -8 -8 -8 -8 -8 -8 -8 -8 -8 -7 -7 -7 -7 -7 -6 -6 -7 -6 -6 -5 -5 -4 -4 -4 -3 -3 -3 -2
-9 -9 -9 -9 -9 -7 -9 -9 -9 -10 -10 -9 -9 -9 -9 -9 -9 -9 -9 -9 -8 -8 -8 -8 -8 -7 -7 -8 -7 -7 -6 -7 -7 -7 -7 -6 -6 -6 -6 -5 -5 -5 -5 -4
-9 -9 -9 -9 -9 -10 -10 -10 -10 -10 -10 -9 -9 -9 -9 -9 -9 -9 -9 -9 -8 -8 -8 -8 -8 -8 -8 -8 -8 -7 -7 -7 -7 -7 -6 -6 -6 -6 -7 -6 -6 -6 -6 -6
-10 -10 -10 -10 -10 -10 -10 -10 -10 -10 -10 -10 -10 -9 -9 -9 -9 -9 -9 -9 -8 -8 -8 -8 -8 -8 -8 -8 -8 -7 -7 -7 -7 -7 -7 -7 -7 -7 -6 -7 -7 -7 -6 -6
-9 -10 -10 -10 -10 -10 -10 -10 -10 -10 -9 -10 -9 -9 -9 -9 -9 -9 -9 -9 -9 -8 -8 -8 -9 -8 -8 -8 -8 -8 -7 -7 -8 -8 -7 -7 -7 -7 -7 -7 -7 -7 -7 -7
-9 -9 -10 -10 -10 -10 -10 -9 -9 -9 -9 -9 -9 -9 -9 -9 -9 -9 -9 -9 -9 -9 -8 -9 -9 -8 -8 -8 -8 -8 -8 -8 -8 -8 -8 -8 -8 -8 -7 -7 -7 -7 -7 -8
Height
3063 3062 3055 3062 3062 3063 3062 3061 3061 3062 3063 3059 3057 3055 3055 3055 3055 3055 3056 3057 3057 3056 3056 3055 3055 3055 3055 3054 3055 3057 3060 3060 3063 3065 3068 3069 3072 3077 3078 3080 3084 3087 3090 3093
3061 3052 3053 3056 3057 3056 3056 3056 3056 3057 3056 3054 3052 3048 3049 3048 3048 3050 3051 3050 3049 3050 3050 3048 3047 3046 3047 3047 3047 3047 3049 3051 3052 3054 3056 3058 3060 3063 3067 3068 3071 3075 3080 3084
3047 3050 3047 3049 3051 3050 3049 3050 3052 3053 3052 3050 3047 3041 3040 3040 3039 3042 3044 3044 3044 3044 3043 3043 3041 3040 3040 3039 3038 3038 3038 3040 3041 3043 3045 3047 3049 3050 3052 3055 3060 3064 3069 3075
3043 3045 3044 3044 3045 3047 3045 3047 3048 3048 3048 3045 3043 3036 3035 3037 3037 3038 3038 3038 3038 3038 3038 3037 3036 3035 3034 3032 3031 3030 3030 3029 3030 3031 3032 3034 3036 3037 3042 3047 3051 3053 3058 3062
3037 3038 3039 3038 3039 3042 3042 3043 3043 3043 3042 3042 3038 3039 3025 3030 3032 3034 3033 3032 3032 3032 3031 3030 3029 3027 3026 3025 3024 3022 3021 3020 3019 3020 3020 3020 3023 3026 3031 3035 3038 3041 3045 3050
3033 3033 3033 3033 3035 3038 3041 3040 3040 3040 3040 3034 3030 3031 3021 3024 3028 3030 3028 3027 3027 3026 3025 3024 3022 3020 3018 3016 3013 3011 3009 3009 3008 3007 3008 3007 3009 3013 3018 3022 3026 3030 3034 3038
3028 3030 3030 3029 3032 3034 3036 3037 3033 3031 3030 3022 3023 3024 3020 3021 3021 3023 3023 3023 3022 3021 3020 3017 3014 3011 3007 3004 3000 2998 2995 2993 2992 2994 2995 2996 2997 3000 3005 3010 3015 3019 3023 3027
3022 3025 3026 3025 3029 3031 3031 3032 3028 3020 3015 3014 3022 3017 3015 3016 3015 3017 3018 3019 3017 3017 3014 3011 3007 3003 2998 2993 2988 2984 2980 2978 2976 2977 2982 2984 2986 2988 2994 2999 3004 3009 3013 3019
3018 3020 3021 3022 3024 3027 3027 3028 3028 3027 3025 3023 3014 3013 3013 3013 3012 3012 3013 3012 3010 3009 3007 3004 3001 2997 2992 2987 2981 2976 2971 2966 2964 2965 2968 2973 2977 2978 2982 2989 2994 2999 3004 3009
3015 3018 3019 3022 3024 3024 3024 3024 3027 3027 3023 3013 3003 3004 3005 3008 3010 3009 3009 3007 3005 3003 3000 2997 2994 2989 2984 2978 2973 2968 2963 2958 2958 2958 2960 2963 2966 2968 2970 2977 2983 2990 2996 3000
3011 3017 3018 3018 3019 3021 3021 3021 3023 3024 3021 3013 3005 3001 3002 3003 3006 3006 3004 3002 3000 2997 2995 2992 2988 2983 2978 2972 2966 2961 2956 2952 2950 2951 2953 2956 2958 2960 2961 2967 2973 2981 2987 2992
3010 3011 3013 3016 3013 3014 3015 3017 3019 3019 3016 3015 3012 3006 3001 3002 3004 3003 3000 2999 2996 2994 2992 2988 2982 2977 2972 2967 2961 2956 2951 2945 2944 2946 2948 2949 2951 2953 2951 2959 2965 2971 2978 2983
3007 3010 3012 3013 3014 3010 3011 3012 3013 3014 3014 3012 3008 3001 2999 2999 3000 2997 2996 2994 2991 2989 2987 2983 2977 2972 2969 2963 2958 2953 2947 2944 2942 2943 2944 2945 2945 2947 2950 2953 2958 2964 2970 2974
3003 3005 3005 3005 3004 3006 3008 3008 3009 3010 3010 3005 3000 2999 3001 3000 3000 2994 2990 2989 2987 2984 2982 2979 2971 2968 2964 2958 2952 2948 2945 2942 2939 2939 2939 2937 2936 2938 2943 2948 2952 2956 2961 2966
3000 3001 3003 3003 3004 3004 3005 3005 3005 3004 3003 3001 2996 2994 2996 2997 2994 2987 2985 2985 2983 2980 2978 2974 2969 2966 2961 2955 2950 2946 2943 2940 2939 2936 2934 2932 2931 2932 2932 2939 2947 2951 2956 2959
2996 2998 2998 2999 3000 3001 3000 2998 2997 2996 2996 2993 2992 2985 2989 2987 2982 2981 2981 2981 2979 2977 2975 2970 2967 2965 2960 2954 2948 2944 2941 2938 2936 2934 2930 2928 2929 2932 2936 2935 2940 2944 2950 2953
2993 2995 2996 2996 2998 2997 2994 2988 2988 2989 2989 2988 2985 2982 2983 2977 2977 2977 2977 2977 2976 2975 2971 2968 2967 2963 2958 2954 2949 2944 2941 2938 2935 2933 2932 2930 2926 2931 2932 2934 2937 2940 2942 2944
2990 2992 2995 2994 2995 2991 2984 2983 2984 2984 2982 2980 2977 2975 2974 2972 2973 2973 2974 2974 2974 2971 2969 2968 2966 2962 2959 2955 2951 2947 2943 2939 2936 2932 2929 2931 2930 2929 2930 2931 2931 2933 2933 2932
2985 2989 2991 2991 2987 2984 2983 2980 2981 2980 2979 2975 2973 2971 2969 2969 2969 2970 2971 2972 2971 2970 2969 2968 2965 2963 2961 2958 2954 2951 2947 2942 2938 2935 2932 2931 2930 2930 2931 2930 2929 2928 2931 2932
2980 2985 2989 2988 2986 2979 2978 2978 2976 2975 2972 2969 2968 2967 2967 2967 2969 2969 2970 2970 2970 2970 2970 2968 2966 2965 2963 2961 2958 2954 2951 2947 2942 2938 2935 2934 2932 2931 2931 2931 2932 2931 2932 2932
2978 2982 2983 2984 2983 2978 2976 2974 2971 2972 2972 2965 2964 2965 2966 2968 2969 2970 2970 2970 2971 2971 2970 2969 2969 2968 2966 2963 2961 2959 2955 2950 2947 2945 2943 2940 2938 2935 2934 2934 2933 2933 2934 2936
2977 2978 2979 2980 2980 2976 2973 2970 2970 2968 2964 2961 2960 2963 2966 2967 2968 2969 2970 2971 2972 2972 2972 2971 2971 2970 2968 2966 2965 2963 2960 2955 2954 2952 2950 2947 2944 2942 2941 2940 2938 2938 2938 2938
2977 2976 2976 2977 2975 2973 2971 2969 2967 2965 2964 2963 2963 2964 2966 2967 2968 2970 2971 2973 2973 2974 2974 2973 2973 2972 2971 2970 2968 2966 2963 2961 2959 2958 2956 2953 2952 2950 2948 2947 2945 2944 2942 2942
2973 2973 2974 2975 2974 2972 2970 2968 2967 2966 2965 2964 2964 2965 2966 2968 2970 2972 2973 2974 2975 2976 2976 2975 2975 2975 2974 2972 2970 2968 2966 2964 2963 2963 2961 2959 2957 2955 2953 2952 2951 2950 2949 2947
2972 2972 2973 2973 2972 2972 2971 2969 2968 2967 2967 2967 2968 2968 2969 2971 2972 2974 2975 2976 2977 2977 2978 2977 2976 2976 2975 2972 2972 2971 2969 2968 2967 2966 2964 2962 2961 2959 2957 2955 2954 2953 2953 2952
2971 2971 2972 2972 2971 2971 2972 2971 2970 2970 2970 2970 2971 2972 2972 2973 2975 2976 2977 2978 2979 2979 2979 2979 2979 2978 2977 2975 2974 2973 2972 2971 2969 2968 2967 2966 2964 2962 2961 2959 2957 2956 2955 2954
Wind_Speed
29 26 35 28 27 27 24 21 23 22 21 21 22 23 20 19 20 20 18 16 18 23 24 23 23 24 27 30 31 32 34 39 42 46 49 51 53 52 50 52 49 46 45 40
25 34 30 27 25 25 23 23 24 20 16 17 19 23 22 22 22 19 16 15 20 17 19 23 25 26 27 29 31 33 35 36 43 44 47 46 46 50 56 58 55 54 50 44
32 21 16 26 24 26 26 25 21 20 17 21 22 27 17 9 9 12 13 14 14 14 15 16 17 21 24 26 26 29 32 35 38 43 49 49 49 47 51 53 59 60 55 48
26 27 23 17 23 22 25 21 22 20 16 14 6 8 7 11 10 10 6 10 12 11 13 16 19 23 22 25 27 28 30 33 36 41 45 53 54 54 49 45 44 51 60 57
21 15 17 27 24 20 20 18 16 15 16 17 19 13 13 12 13 9 8 10 13 15 20 20 21 22 24 27 27 32 35 36 38 39 43 48 56 56 51 46 44 47 51 56
24 17 11 12 20 25 14 11 12 13 14 16 21 18 14 15 12 9 15 15 16 21 20 20 23 26 29 32 35 35 39 41 43 45 45 43 49 57 53 49 46 44 48 51
21 19 12 11 9 13 15 12 11 11 9 11 4 13 16 10 12 10 16 18 22 22 20 25 27 33 36 38 40 41 39 40 46 50 47 44 43 52 51 49 46 44 44 42
20 14 14 10 14 14 19 19 16 11 11 5 6 9 7 14 17 15 15 17 19 18 21 26 31 30 32 34 36 36 38 37 39 49 50 46 44 45 55 45 49 45 45 42
15 10 8 10 15 17 12 16 13 9 13 12 17 12 9 8 4 9 14 12 14 18 18 23 24 31 32 34 33 34 32 28 30 38 44 46 39 41 49 49 49 49 40 44
10 6 11 17 17 16 10 10 5 8 5 12 11 15 11 10 9 10 10 13 20 27 30 30 36 29 29 31 26 29 27 21 23 29 29 34 33 34 41 49 51 51 44 40
9 14 5 14 13 13 12 11 10 9 11 7 10 8 4 11 10 13 17 25 30 31 31 31 32 29 31 29 28 28 26 23 18 24 23 26 29 24 30 39 50 49 47 45
18 11 14 12 18 20 17 14 15 16 12 14 15 19 7 12 16 23 27 26 30 32 30 30 33 29 33 31 31 27 25 22 10 21 22 21 23 31 26 33 36 42 47 50
18 8 9 5 7 16 11 12 13 13 8 16 14 5 5 10 16 26 28 31 33 32 30 28 30 27 32 26 30 22 20 16 8 15 22 24 22 29 28 28 33 36 38 39
14 11 12 11 2 4 10 15 13 13 11 19 26 28 21 19 23 26 34 31 31 29 25 23 27 30 31 25 24 15 17 13 8 14 24 28 26 33 33 28 33 33 34 33
14 10 12 14 12 10 13 16 19 23 25 27 29 32 29 27 28 33 34 31 27 24 19 19 23 25 21 16 13 13 14 13 17 17 16 20 17 27 27 19 34 34 35 33
15 7 10 12 13 14 18 22 25 26 26 30 32 39 28 25 33 34 29 21 20 16 14 15 18 14 12 13 11 8 8 10 12 19 13 10 8 23 14 14 14 26 28 29
12 9 5 9 7 8 16 21 21 20 17 19 23 23 23 30 24 22 19 14 13 11 7 9 9 9 13 16 18 12 9 9 6 7 8 6 5 11 12 11 13 19 25 33
10 11 9 6 4 7 5 4 6 10 14 16 23 25 17 25 19 12 11 9 8 4 3 2 6 12 15 18 20 21 15 11 9 7 6 7 8 3 9 8 15 16 26 32
17 14 9 7 11 10 9 11 6 9 11 20 17 15 15 11 11 10 10 7 4 4 5 7 11 14 16 17 19 18 19 17 11 9 8 8 6 6 7 6 3 18 15 21
11 16 14 7 5 4 3 6 18 16 15 13 9 8 9 11 11 11 10 8 7 7 8 11 14 15 16 17 18 19 20 22 24 25 21 16 13 7 5 2 8 18 17 20
9 13 17 14 7 6 10 14 3 8 3 9 7 9 13 9 8 12 12 10 10 11 12 12 12 12 14 16 17 17 20 25 29 27 25 23 23 22 20 14 9 0 6 7
6 8 7 8 7 4 8 8 5 4 6 5 4 14 12 6 10 13 12 11 11 11 12 12 11 12 13 16 17 18 21 25 25 25 24 24 25 25 24 22 21 18 16 11
4 7 3 7 3 9 7 4 3 3 3 4 8 10 8 8 13 13 12 12 12 11 11 11 11 12 12 13 15 16 19 21 21 20 20 22 23 22 23 21 21 19 18 17
3 3 4 2 3 3 4 2 5 7 8 8 10 12 12 13 15 14 13 12 12 11 11 11 12 12 11 14 15 16 17 18 18 17 18 18 17 18 18 17 17 17 16 16
4 6 6 4 3 2 6 6 8 8 9 10 11 14 15 14 14 13 12 12 11 10 10 11 11 10 11 13 14 15 15 16 16 16 16 16 16 16 16 15 15 14 14 13
4 5 7 6 2 2 4 6 7 8 9 10 11 11 13 14 12 12 10 10 9 9 8 9 8 9 9 11 12 13 13 14 15 15 15 15 15 15 15 14 14 14 14 13
Wind_Direction
250 233 237 239 239 249 258 256 261 259 265 269 268 269 268 264 260 262 263 259 252 264 270 267 266 263 260 262 261 256 250 251 247 246 245 245 244 240 238 241 244 240 237 235
228 240 246 245 241 243 247 256 259 268 267 262 273 274 270 266 261 257 249 243 259 257 263 266 262 261 260 259 259 259 254 248 244 243 240 241 244 243 240 238 239 242 240 237
224 250 238 235 235 236 241 244 255 261 270 274 279 283 268 248 204 222 237 241 253 253 256 258 260 267 269 268 266 261 255 251 247 244 241 242 241 241 241 241 238 239 240 240
238 243 249 236 237 233 243 249 256 257 261 262 240 283 245 243 228 183 235 223 237 249 270 271 269 265 270 269 269 266 261 255 249 245 242 240 240 241 242 242 244 244 242 239
226 253 244 240 240 223 239 253 251 247 251 262 257 259 263 197 192 200 209 249 248 274 288 279 273 271 270 269 272 272 263 257 252 248 246 243 239 240 242 239 242 238 239 237
237 251 228 245 235 237 249 232 236 245 248 251 249 230 278 194 192 198 246 266 269 290 288 289 289 287 285 285 279 278 266 265 253 247 246 247 243 238 239 238 237 237 236 234
220 224 232 228 201 203 213 225 231 224 212 243 223 216 230 195 199 236 246 264 281 292 294 296 297 299 296 293 289 285 278 272 251 246 242 246 246 240 235 234 231 234 231 227
211 206 220 226 215 228 223 226 240 257 247 257 212 239 198 230 241 244 250 266 282 296 297 299 302 308 304 295 288 287 284 279 255 240 241 242 245 243 237 234 226 230 228 224
211 207 203 217 223 217 221 223 236 264 266 270 253 240 268 222 246 272 281 300 325 335 320 307 305 309 308 302 288 291 284 282 266 244 240 240 242 247 235 236 228 227 225 225
191 232 238 237 231 220 212 211 210 218 253 254 247 244 240 187 193 255 279 307 319 321 318 322 328 312 312 311 295 299 289 286 273 247 241 235 240 243 227 233 225 227 226 228
231 219 228 221 228 235 234 232 229 250 250 270 280 274 192 214 260 267 294 308 312 317 322 324 327 311 315 312 311 310 301 279 283 240 233 238 238 247 229 228 223 226 229 226
225 222 232 225 231 230 234 243 238 239 243 244 276 273 240 257 272 277 289 300 304 311 317 323 328 315 314 306 309 305 304 278 271 244 228 238 242 229 235 221 220 226 229 231
223 211 209 226 253 247 232 228 217 216 234 245 247 239 218 291 293 288 297 301 307 312 310 317 328 318 311 301 301 300 305 288 288 242 233 235 233 225 232 216 212 219 220 223
212 212 227 253 347 181 206 205 208 217 229 248 247 267 260 279 287 297 296 303 309 308 307 315 330 315 313 301 301 296 299 297 298 245 239 234 260 220 218 218 216 214 218 223
228 237 237 241 245 243 237 236 239 241 251 257 270 270 272 279 287 278 288 299 303 302 298 319 318 317 320 323 316 306 300 307 260 291 255 258 236 213 211 208 208 215 219 217
228 241 243 254 253 252 259 255 254 255 259 262 267 271 279 282 264 276 285 291 304 291 293 314 317 315 349 5 359 335 321 308 269 275 301 266 215 221 233 226 214 217 231 226
220 225 228 252 246 264 270 263 253 250 253 255 260 277 281 276 274 278 283 282 296 279 302 301 307 4 18 23 25 18 17 17 351 283 291 2 222 243 224 237 232 232 240 236
216 219 225 266 251 243 209 198 216 257 268 270 275 286 286 251 270 266 264 253 254 271 272 351 39 37 35 34 29 29 24 15 2 24 9 283 301 352 284 272 257 241 257 239
221 219 232 240 228 277 258 251 242 295 275 279 274 269 267 257 255 218 195 209 208 143 109 83 66 50 46 40 38 36 41 45 46 34 38 36 16 315 315 321 224 164 174 179
219 204 214 212 258 260 213 230 296 293 253 248 271 250 227 185 177 185 173 167 138 121 102 81 70 60 54 50 49 48 52 56 55 54 55 47 44 33 9 337 268 257 228 222
151 185 213 225 249 270 280 311 300 195 285 286 255 190 168 186 192 171 152 142 131 114 99 84 75 64 59 56 51 49 52 55 55 53 54 57 59 60 57 55 55 230 217 209
176 185 199 215 227 247 302 321 199 278 314 328 179 184 198 205 175 157 148 139 123 110 101 92 81 71 63 60 57 57 57 57 53 51 50 52 54 57 57 55 59 59 58 63
215 197 186 200 219 281 313 346 27 34 56 130 152 167 168 173 158 147 140 131 120 112 103 94 83 74 68 65 60 54 55 58 53 47 45 48 49 49 52 50 52 51 52 53
194 175 224 170 232 360 8 49 76 74 81 102 126 136 136 141 138 136 133 126 118 109 99 90 82 74 69 67 61 56 54 55 52 46 44 44 44 46 44 43 46 49 46 48
180 162 181 226 224 43 49 77 88 83 89 99 114 122 126 130 131 130 128 121 111 103 99 91 84 78 72 67 58 52 50 54 52 47 43 42 40 37 37 37 36 36 35 39
159 168 167 222 242 107 83 87 100 99 96 103 109 114 122 122 124 121 120 115 110 103 96 92 85 75 70 70 64 55 49 49 48 45 41 39 36 32 30 27 24 22 21 21